Location: Three Guys Observatory
(38.6418°N, 87.1521°W)
Time: 11:35:03
(UTC-04:00)

ISS - Visible Passes

Search period start: 26 April 2018 00:00
Search period end: 06 May 2018 00:00
Orbit: 402 x 407 km, 51.6° (Epoch: 27 April)

Date Brightness Start Highest point End Pass type
(mag) Time Alt. Az. Time Alt. Az. Time Alt. Az.
30 Apr -2.5 06:19:32 10° SSW 06:22:33 36° SE 06:25:35 10° ENE visible
01 May -1.5 05:28:29 12° S 05:30:24 18° SE 05:32:43 10° E visible
02 May -3.8 06:11:05 10° SW 06:14:19 83° NW 06:17:35 10° NE visible
03 May -3.2 05:20:55 31° S 05:22:02 46° SE 05:25:11 10° ENE visible
04 May -1.7 04:30:39 20° ESE 04:30:39 20° ESE 04:32:28 10° ENE visible
04 May -2.7 06:03:18 11° W 06:06:10 34° NNW 06:09:12 10° NE visible
05 May -3.7 05:12:58 45° W 05:13:45 65° NW 05:17:00 10° NE visible
